Change the Weather History Date:

Wednesday, October 23, 2013

  Actual Average Record
Temperature  
Mean Temperature 70 °F -  
Max Temperature 84 °F 73 °F 95 °F (2004)
Min Temperature 57 °F 51 °F 50 °F (2000)
Cooling Degree Days 6    
Growing Degree Days 20 (Base 50)    
Moisture  
Dew Point 51 °F    
Average Humidity 50    
Maximum Humidity 78    
Minimum Humidity 18    
Precipitation  
Precipitation 0.00 in 0.05 in - ()
Sea Level Pressure  
Sea Level Pressure 30.09 in    
Wind  
Wind Speed 4 mph ()    
Max Wind Speed 9 mph    
Max Gust Speed -    
Visibility 5.2 miles    
Events      
Averages and records for this station are not official NWS values.
T = Trace of Precipitation, MM = Missing Value Source: Averaged Metar Reports

Daily Weather History Graph

Daily Weather History Graph

Search for Another Location

Airport or City:

Trip Planner

Search our weather history database for the weather conditions in past years. The results will help you decide how hot, cold, wet, or windy it might be!

Date:

Astronomy

Oct. 23, 2013 Rise Set
Actual Time 7:41 AM WEST 6:51 PM WEST
Civil Twilight 7:16 AM WEST 7:16 PM WEST
Nautical Twilight 6:47 AM WEST 7:44 PM WEST
Astronomical Twilight 6:19 AM WEST 8:12 PM WEST
Moon 10:19 PM WEST (10/23) 11:38 AM WEST (10/23)
Length of Visible Light 11h 59m
Length of Day
11h 10m
Waning Gibbous, 81% of the Moon is Illuminated
Oct 23
Waning Gibbous
Oct 27
Last Quarter
Nov 3
New
Nov 10
First Quarter
Nov 17
Full

Hourly Weather History & Observations

Time (WEST) Temp. Dew Point Humidity Pressure Visibility Wind Dir Wind Speed Gust Speed Precip Events Conditions
12:00 AM 64.4 °F 51.8 °F 64% 30.09 in 4.3 mi WSW 4.6 mph - N/A   Unknown
12:30 AM 64.4 °F 51.8 °F 64% 30.09 in 4.3 mi WSW 4.6 mph - N/A   Unknown
1:00 AM 64 °F 52 °F 55% 30.07 in 5 mi WSW 4.6 mph - -   Clear
1:00 AM 62.6 °F 51.8 °F 68% 30.09 in 5.0 mi WSW 4.6 mph - N/A   Unknown
2:30 AM 62.6 °F 51.8 °F 68% 30.09 in 5.0 mi South 2.3 mph - N/A   Unknown
3:00 AM 60.8 °F 51.8 °F 72% 30.09 in 5.0 mi SW 3.5 mph - N/A   Unknown
3:30 AM 62.6 °F 51.8 °F 68% 30.09 in 5.0 mi SSW 4.6 mph - N/A   Unknown
4:00 AM 61 °F 51 °F 61% 30.08 in 5 mi SW 3.5 mph - -   Clear
4:00 AM 60.8 °F 51.8 °F 72% 30.09 in 5.0 mi WSW 3.5 mph - N/A   Unknown
4:30 AM 62.6 °F 51.8 °F 68% 30.09 in 5.6 mi SSW 3.5 mph - N/A   Unknown
5:00 AM 64.4 °F 51.8 °F 64% 30.09 in 5.6 mi South 3.5 mph - N/A   Unknown
5:30 AM 60.8 °F 50.0 °F 68% 30.09 in - Calm Calm - N/A   Clear
6:00 AM 60.8 °F 51.8 °F 72% 30.06 in - Calm Calm - N/A   Clear
6:30 AM 60.8 °F 50.0 °F 68% 30.06 in - Variable 2.3 mph - N/A   Clear
7:00 AM 59 °F 51 °F 66% 30.07 in 5 mi East 3.5 mph - -   Clear
7:00 AM 59.0 °F 50.0 °F 72% 30.09 in 5.0 mi East 3.5 mph - N/A   Unknown
7:30 AM 57.2 °F 50.0 °F 77% 30.09 in 5.0 mi East 3.5 mph - N/A   Unknown
8:00 AM 59.0 °F 51.8 °F 77% 30.09 in 5.0 mi East 3.5 mph - N/A   Unknown
8:30 AM 60.8 °F 51.8 °F 72% 30.12 in 5.0 mi East 2.3 mph - N/A   Unknown
9:00 AM 64.4 °F 51.8 °F 64% 30.12 in - SE 2.3 mph - N/A   Clear
9:30 AM 66.2 °F 51.8 °F 60% 30.15 in - SSE 4.6 mph - N/A   Clear
10:00 AM 69 °F 52 °F 45% 30.11 in 6 mi SE 3.5 mph - -   Clear
10:00 AM 68.0 °F 51.8 °F 56% 30.15 in - SSE 3.5 mph - N/A   Clear
10:30 AM 71.6 °F 51.8 °F 50% 30.15 in - Variable 2.3 mph - N/A   Clear
11:00 AM 73.4 °F 53.6 °F 50% 30.15 in - East 4.6 mph - N/A   Clear
11:30 AM 75.2 °F 53.6 °F 47% 30.15 in - Variable 3.5 mph - N/A   Clear
12:00 PM 77.0 °F 53.6 °F 44% 30.12 in - NE 5.8 mph - N/A   Clear
12:30 PM 78.8 °F 51.8 °F 39% 30.12 in - ENE 5.8 mph - N/A   Clear
1:00 PM 80 °F 51 °F 26% 30.03 in 6 mi NNE 4.6 mph - -   Clear
1:00 PM 78.8 °F 51.8 °F 39% 30.09 in - NNE 4.6 mph - N/A   Clear
1:30 PM 82.4 °F 50.0 °F 32% 30.09 in - ENE 4.6 mph - N/A   Clear
2:00 PM 82.4 °F 50.0 °F 32% 30.06 in - Variable 1.2 mph - N/A   Clear
2:30 PM 84.2 °F 46.4 °F 27% 30.06 in - NNW 3.5 mph - N/A   Clear
3:00 PM 84.2 °F 46.4 °F 27% 30.06 in - NNW 4.6 mph - N/A   Clear
3:30 PM 82.4 °F 46.4 °F 28% 30.06 in - NNW 9.2 mph - N/A   Clear
4:00 PM 83 °F 46 °F 18% 29.98 in 6 mi WNW 6.9 mph - -   Clear
4:00 PM 84.2 °F 46.4 °F 27% 30.06 in - WNW 8.1 mph - N/A   Clear
4:30 PM 84.2 °F 48.2 °F 29% 30.06 in - West 6.9 mph - N/A   Clear
5:00 PM 84.2 °F 48.2 °F 29% 30.09 in - West 8.1 mph - N/A   Clear
5:30 PM 84.2 °F 48.2 °F 29% 30.06 in - West 8.1 mph - N/A   Clear
6:00 PM 84.2 °F 46.4 °F 27% 30.09 in - West 8.1 mph - N/A   Clear
6:30 PM 82.4 °F 48.2 °F 30% 30.09 in - WSW 5.8 mph - N/A   Clear
7:00 PM 80 °F 50 °F 24% 30.02 in 6 mi WSW 6.9 mph - -   Scattered Clouds
7:00 PM 80.6 °F 50.0 °F 34% 30.09 in - WSW 6.9 mph - N/A   Clear
7:30 PM 78.8 °F 50.0 °F 36% 30.09 in - WSW 3.5 mph - N/A   Clear
8:00 PM 77.0 °F 48.2 °F 36% 30.12 in - SW 4.6 mph - N/A   Clear
8:30 PM 75.2 °F 50.0 °F 41% 30.12 in - SW 3.5 mph - N/A   Clear
9:00 PM 77.0 °F 51.8 °F 41% 30.12 in - SW 5.8 mph - N/A   Clear
9:30 PM 73.4 °F 51.8 °F 47% 30.12 in - WSW 4.6 mph - N/A   Clear
10:00 PM 72 °F 55 °F 44% 30.07 in 6 mi WSW 6.9 mph - -   Scattered Clouds
10:00 PM 71.6 °F 55.4 °F 57% 30.12 in - SW 8.1 mph - N/A   Clear
10:30 PM 69.8 °F 57.2 °F 64% 30.12 in - WSW 5.8 mph - N/A   Clear
11:00 PM 69.8 °F 59.0 °F 68% 30.12 in - WSW 4.6 mph - N/A   Clear
11:30 PM 68.0 °F 60.8 °F 78% 30.12 in - WSW 3.5 mph - N/A   Clear